Location: Kirchberg
(47.4114°N, 9.0398°E)
Time: 21:21:25
(UTC+00:00)

USA 305 - Pass Details

Date: 03 March 2021
Orbit: 567 x 574 km, 54.0° (Epoch: 13 April)

Event Time Altitude Azimuth Distance (km) Brightness Sun altitude
Rises 18:04:55 0° 275° (W) 2,779 8.7 -9.7°
Reaches altitude 10° 18:07:20 10° 284° (WNW) 1,880 7.0 -10.2°
Maximum altitude 18:11:17 35° 352° (N) 930 4.1 -10.8°
Enters shadow 18:14:59 11° 58° (ENE) 1,789 4.9 -11.4°
